Regional Weather Roundup
Issued by NWS Green Bay, WI

Home | Current Version | Previous Version | Text Only | Print | Product List | Glossary On
Versions: 1 2 3 4 5 6 7 8 9 10 11 12 13 14 15 16 17 18 19 20 21 22 23 24 25 26 27 28 29 30 31 32 33 34 35 36 37 38 39 40 41 42 43 44 45 46 47 48 49 50
481
ASUS43 KGRB 281800
RWRGRB

NORTH-CENTRAL AND NORTHEAST WISCONSIN REGIONAL WEATHER ROUNDUP
NATIONAL WEATHER SERVICE GREEN BAY WI
100 PM CDT FRI APR 28 2017

WIZ005-009-010>012-018-019-281900-
NORTH CENTRAL WISCONSIN

CITY           SKY/WX    TMP DP  RH WIND       PRES   REMARKS
IRONWOOD       CLOUDY    34  27  75 W14       29.90R
MANITOWISH WTR NOT AVBL
ARBOR VITAE    NOT AVBL
EAGLE RIVER    NOT AVBL
LAND O LAKES   NOT AVBL
RHINELANDER    CLOUDY    38  25  59 W9        29.90R
PHILLIPS       NOT AVBL
ANTIGO         NOT AVBL
TOMAHAWK       NOT AVBL
MERRILL        NOT AVBL
$$

WIZ013-073-281900-
NORTHEAST WISCONSIN

CITY           SKY/WX    TMP DP  RH WIND       PRES   REMARKS
IRON MOUNTAIN  CLOUDY    38  26  62 SW14G21   29.88R
MARINETTE      PTSUNNY   43  27  53 NW8       29.91S
$$

WIZ017-030-035>037-045-281900-
CENTRAL WISCONSIN

CITY           SKY/WX    TMP DP  RH WIND       PRES   REMARKS
MEDFORD        NOT AVBL
WAUSAU         MOSUNNY   42  28  57 W13       29.89F
MOSINEE        MOSUNNY   43  30  61 NW9       29.90F
MARSHFIELD     CLOUDY    43  28  55 NW12      29.89F
WISC RAPIDS    CLOUDY    46  29  51 W5        29.93S
STEVENS POINT  NOT AVBL
WAUPACA        NOT AVBL
SHAWANO        NOT AVBL
CLINTONVILLE   NOT AVBL
WAUTOMA        MOSUNNY   47  31  53 CALM      29.92S
$$

WIZ038-039-048-051-281900-
FOX VALLEY

CITY           SKY/WX    TMP DP  RH WIND       PRES   REMARKS
NWS GREEN BAY  CLOUDY    47  34  60 SW7       29.91F
APPLETON       PTSUNNY   45  30  57 SW12      29.90F
OSHKOSH        CLOUDY    48  34  58 W10       29.92S
FOND DU LAC    MOSUNNY   47  33  58 SW8       29.94R
$$

WIZ022-050-052-281900-
EAST CENTRAL WISCONSIN

CITY           SKY/WX    TMP DP  RH WIND       PRES   REMARKS
EPHRAIM        NOT AVBL
WASHINGTON ISL NOT AVBL
STURGEON BAY   CLOUDY    43  29  57 W10G17    29.92S
MANITOWOC      NOT AVBL
SHEBOYGAN      SUNNY     50  42  74 VRB7      29.93S
$$

LMZ563-521-522-541>543-281900-
LAKESHORE

STATION/POSITION TIME  TEMP    WIND        PRES    VSBY  WAVE
                       AIR SEA DIR/SP/G                  HT/PER
                 (UTC) (F)     (DEG/KT/KT) (MB)    (MI)  (FT/S)
SHEBOYGAN LKSHOR 1700   40     150/ 13/ 13 1013.8F
KEWAUNEE LKSHORE 1730   44     250/ 10/ 14 1013.1F
NORTHPORT PIER   1740   40     230/  7/ 16 1013.5R
N MID LAKE BUOY  1650   36 37  240/ 14/ 16 1014.2R         3/ 6
CHAMBERS ISLAND  1740   41     220/  9/ 14 1012.9R
MENOMINEE LKSHOR 1730   41     240/ 12/ 15 1012.6R
$$




USA.gov is the U.S. government's official web portal to all federal, state and local government web resources and services.